Meteopurmerend
purmerend
Purmerend - Baaienwijk



My webcam  My webcam


waarschuwing voor Onweer Meer informatie blitzortung!


Regen radar Meer informatie rain snow radar


Bezoek onze andere website:

CandyAppleRed WebdesignWebdesign Purmerend Candy Apple Red

MeteopurmerendBlog

Template documentation
and downloads



Onweer van: 26-07-2021 13:00 tot: 21:00 waarschuwing voor: Onweer niveau: Geel info button
Enkele onweersbuien, lokaal met hagel en veel neerslag in korte tijd.Kans op blikseminslag, hagel en veel neerslag in korte tijd.Verkeer en buitenactiviteiten kunnen hinder ondervinden.Mijd open water en open gebied, schuil niet onder bomen.Volg weerberichten en waarschuwingen.

15 daagse weersverwachting An Muileann gCearr (IE)

  • Overzicht
  • Per uur
  • 15 dagen
  • Extra
  • Vergelijk
  • Kaarten
  • Dagkaart
  • Meer »
  • Info
  • Statistieken
  • Directe link
    Temp 6h Neerslag Wind  
 05:38     21:35    Daglengte: 15:57 Vandaag
19:00
19°
 
4
 05:40     21:33    Daglengte: 15:53 Morgen
01:00
16°
0.4 mm
3
07:00
14°
 
4
13:00
16°
 
4
19:00
16°
6.8 mm
5
 05:41     21:32    Daglengte: 15:51 Woensdag 28 Jul
01:00
14°
 
3
07:00
13°
 
3
13:00
15°
18.3 mm
6
19:00
15°
12.7 mm
7
 05:43     21:30    Daglengte: 15:47 Donderdag 29 Jul
01:00
12°
 
6
07:00
12°
9.3 mm
6
Locatie info
Region: Leinster
Latitude: 53.5333°N
Longitude: -7.3500°E
96 masl
Temp/Neerslag /Baro Onweer/Dauwpunt
    Temp Baro 1h Neerslag Dauwpunt Wind UV Bewolking  
 05:38     21:35    Daglengte: 15:57 Vandaag
14:00
22°
1009.6 hPa
11%
13.3°
3
Windvlaag: -2.3 m/s
65%
15:00
22°
1009.0 hPa
11%
13.5°
3
Windvlaag: -1.8 m/s
86%
16:00
21°
1008.8 hPa
23%
16.3°
4
Windvlaag: -1.7 m/s
85%
17:00
21°
1008.5 hPa
69%
16.6°
4
Windvlaag: -1.8 m/s
86%
18:00
20°
1008.5 hPa
73%
16.4°
4
Windvlaag: -1.4 m/s
86%
19:00
19°
1008.5 hPa
37%
16.2°
4
Windvlaag: -1.1 m/s
83%
20:00
18°
1008.7 hPa 0.4 mm
81%
15.5°
4
Windvlaag: -0.7 m/s
86% warningclass
21:00
17°
1008.7 hPa
73%
14.9°
4
Windvlaag: -0.9 m/s
83%
22:00
17°
1008.9 hPa
25%
14.7°
4
Windvlaag: -1.9 m/s
86%
23:00
16°
1008.9 hPa
22%
14.5°
4
Windvlaag: -2.9 m/s
79%
 05:40     21:33    Daglengte: 15:53 Morgen
00:00
16°
1008.9 hPa
37%
14.4°
4
Windvlaag: -3.1 m/s
84%
01:00
16°
1008.9 hPa
76%
14.3°
3
Windvlaag: -2 m/s
71%
02:00
16°
1008.8 hPa
78%
14.3°
3
Windvlaag: -2 m/s
67%
03:00
16°
1008.5 hPa
82%
14.5°
3
Windvlaag: -1.4 m/s
64%
04:00
15°
1008.3 hPa
79%
14.3°
4
Windvlaag: -0.6 m/s
81%
05:00
15°
1008.0 hPa
31%
14.0°
3
Windvlaag: -1.2 m/s
74%
06:00
15°
1008.0 hPa
23%
13.7°
4
Windvlaag: -2 m/s
67%
07:00
14°
1008.4 hPa
17%
13.4°
4
Windvlaag: -2.4 m/s
54%
08:00
15°
1008.2 hPa
16%
13.6°
4
Windvlaag: -2.7 m/s
63%
09:00
15°
1008.4 hPa
14%
14.3°
4
Windvlaag: -2.6 m/s
59%
10:00
15°
1008.5 hPa
14%
14.1°
4
Windvlaag: -2.6 m/s
84%
11:00
16°
1008.4 hPa
14%
13.9°
4
Windvlaag: -2.4 m/s
81%
12:00
16°
1008.3 hPa
17%
13.7°
3
Windvlaag: -1.8 m/s
54%
13:00
16°
1008.1 hPa
75%
14.3°
4
Windvlaag: -1.3 m/s
78%
14:00
16°
1008.0 hPa 2.7 mm
82%
14.1°
5
Windvlaag: -2.3 m/s
76%
15:00
16°
1008.0 hPa 2.4 mm
82%
13.6°
6
Windvlaag: -3.3 m/s
74%
16:00
16°
1007.9 hPa 1.8 mm
81%
12.9°
6
Windvlaag: -3 m/s
71%
17:00
16°
1007.9 hPa
73%
11.9°
6
Windvlaag: -3 m/s
49%
18:00
15°
1007.8 hPa
82%
11.3°
6
Windvlaag: -3.1 m/s
57%
19:00
16°
1007.8 hPa
82%
11.0°
5
Windvlaag: -2.3 m/s
21%
20:00
15°
1007.8 hPa
74%
10.7°
5
Windvlaag: -3.7 m/s
15%
21:00
15°
1008.1 hPa
76%
10.2°
4
Windvlaag: -3.7 m/s
52%
22:00
14°
1008.4 hPa
67%
9.9°
4
Windvlaag: -3.5 m/s
22%
23:00
14°
1008.3 hPa
19%
9.6°
4
Windvlaag: -3.3 m/s
21%
 05:41     21:32    Daglengte: 15:51 Woensdag 28 Jul
00:00
14°
1008.0 hPa
21%
9.2°
3
Windvlaag: -2.1 m/s
21%
01:00
14°
1007.6 hPa
23%
8.9°
3
Windvlaag: -1.5 m/s
16%
02:00
13°
1007.1 hPa
16%
8.3°
3
Windvlaag: -0.4 m/s
50%
03:00
13°
1006.5 hPa
49%
9.1°
3
Windvlaag: 1.2 m/s
40%
04:00
13°
1006.2 hPa
14%
9.1°
3
Windvlaag: 0.9 m/s
33%
05:00
13°
1005.9 hPa
14%
9.5°
3
Windvlaag: 2.4 m/s
20%
06:00
12°
1005.7 hPa
14%
9.8°
3
Windvlaag: 4.1 m/s
27%
07:00
13°
1005.6 hPa
17%
10.1°
3
Windvlaag: 4 m/s
60%
08:00
13°
1005.5 hPa
16%
10.7°
4
Windvlaag: 5.1 m/s
20%
09:00
14°
1005.5 hPa
22%
11.1°
4
Windvlaag: 4.7 m/s
20%
10:00
14°
1003.7 hPa 4.7 mm
23%
11.8°
5
Windvlaag: 3.6 m/s
71%
11:00
14°
1003.4 hPa 4.6 mm
82%
10.3°
6
Windvlaag: 1.8 m/s
57%
12:00
15°
1003.4 hPa 4.4 mm
99%
9.0°
6
Windvlaag: 0.3 m/s
54%
13:00
15°
1003.4 hPa 4.6 mm
100%
9.0°
6
Windvlaag: -1 m/s
74%
14:00
14°
1003.5 hPa 4.2 mm
100%
11.5°
6
Windvlaag: -0.8 m/s
75%
15:00
15°
1003.6 hPa
100%
9.4°
6
Windvlaag: -1.3 m/s
87%
16:00
15°
1003.5 hPa
100%
11.3°
6
Windvlaag: -1.3 m/s
62%
17:00
16°
1003.4 hPa
93%
12.1°
6
Windvlaag: -1.3 m/s
49%
18:00
16°
1003.5 hPa 4.2 mm
37%
11.3°
6
Windvlaag: -1.3 m/s
68%
19:00
15°
1004.0 hPa 4.3 mm
29%
10.9°
7
Windvlaag: -1.3 m/s
50%
20:00
14°
1004.3 hPa
21%
12.2°
6
Windvlaag: -2 m/s
47%
21:00
14°
1004.7 hPa
21%
12.4°
6
Windvlaag: 0 m/s
33%
22:00
13°
1005.2 hPa
21%
12.4°
6
Windvlaag: -0.7 m/s
27%
23:00
13°
1005.5 hPa
21%
11.7°
6
Windvlaag: -0.9 m/s
33%
 05:43     21:30    Daglengte: 15:47 Donderdag 29 Jul
00:00
12°
1005.8 hPa
21%
11.3°
6
Windvlaag: 0.5 m/s
37%
01:00
12°
1005.9 hPa
21%
10.8°
6
Windvlaag: 1.4 m/s
42%
02:00
12°
1005.8 hPa
21%
10.9°
7
Windvlaag: 1 m/s
75%
03:00
12°
1006.0 hPa
21%
10.9°
7
Windvlaag: 1.1 m/s
39%
04:00
12°
1006.1 hPa
21%
10.9°
7
Windvlaag: 1.1 m/s
50%
05:00
12°
1006.3 hPa
21%
10.9°
7
Windvlaag: 1.2 m/s
60%
06:00
11°
1006.5 hPa 4.6 mm
21%
10.5°
6
Windvlaag: 1.2 m/s
81%
07:00
12°
1006.7 hPa 4.7 mm
21%
10.7°
6
Windvlaag: 0.6 m/s
81%
08:00
12°
1006.8 hPa
21%
10.9°
6
Windvlaag: 11.8 m/s
20%
09:00
14°
1006.9 hPa
21%
12.1°
7
Windvlaag: 10.8 m/s
20%
10:00
15°
1007.0 hPa
21%
12.9°
7
Windvlaag: 11.1 m/s
20%
11:00
16°
1007.1 hPa
21%
12.8°
7
Windvlaag: 11.2 m/s
19%
12:00
17°
1007.1 hPa
21%
10.9°
7
Windvlaag: 10.4 m/s
58%
13:00
18°
1007.1 hPa
21%
13.5°
7
Windvlaag: 10 m/s
20%
Temp/Neerslag /Baro Onweer/Dauwpunt
    Temp Baro Neerslag Dauwpunt Wind Bewolking  
 05:38     21:35    Daglengte: 15:57 Vandaag
16:00
21°
1008.8 hPa   16.3°
4
85%
19:00
19°
1008.5 hPa   16.2°
4
83%
22:00
17°
1008.9 hPa 0.4 mm 14.7°
4
86%
 05:40     21:33    Daglengte: 15:53 Morgen
01:00
16°
1008.9 hPa   14.3°
3
71%
04:00
15°
1008.3 hPa   14.3°
4
81%
07:00
14°
1008.4 hPa   13.4°
4
54%
10:00
15°
1008.5 hPa   14.1°
4
84%
13:00
16°
1008.1 hPa   14.3°
4
78%
16:00
16°
1007.9 hPa 6.8 mm 12.9°
6
71%
19:00
16°
1007.8 hPa   11.0°
5
21%
22:00
14°
1008.4 hPa   9.9°
4
22%
 05:41     21:32    Daglengte: 15:51 Woensdag 28 Jul
01:00
14°
1007.6 hPa   8.9°
3
16%
04:00
13°
1006.2 hPa   9.1°
3
33%
07:00
13°
1005.6 hPa   10.1°
3
60%
10:00
14°
1003.7 hPa 4.7 mm 11.8°
5
71%
13:00
15°
1003.4 hPa 13.6 mm 9.0°
6
74%
16:00
15°
1003.5 hPa 4.2 mm 11.3°
6
62%
19:00
15°
1004.0 hPa 8.5 mm 10.9°
7
50%
22:00
13°
1005.2 hPa   12.4°
6
27%
 05:43     21:30    Daglengte: 15:47 Donderdag 29 Jul
01:00
12°
1005.9 hPa   10.8°
6
42%
04:00
12°
1006.1 hPa   10.9°
7
50%
07:00
12°
1006.7 hPa 9.3 mm 10.7°
6
81%
10:00
15°
1007.0 hPa   12.9°
7
20%
13:00
18°
1007.1 hPa   13.5°
7
20%
16:00
12°
1009.4 hPa 24.5 mm 11.7°
4
1%
19:00
13°
1009.3 hPa 24.9 mm 12.2°
2
1%
22:00
11°
1009.4 hPa 24.9 mm 10.0°
1
1%
 05:45     21:28    Daglengte: 15:43 Vrijdag 30 Jul
01:00
Voelt als: 9.2°
1009.4 hPa 24.9 mm 8.5°
1
1%
04:00
1008.4 hPa 24.9 mm 8.3°
1
1%
07:00
10°
1008.0 hPa 24.9 mm 9.3°
2
1%
10:00
14°
1007.7 hPa 24.9 mm 11.6°
2
1%
13:00
15°
1006.9 hPa 25.4 mm 13.3°
2
1%
16:00
17°
1006.8 hPa 26.9 mm 13.5°
3
1%
19:00
15°
1006.9 hPa 29.3 mm 13.5°
3
1%
22:00
14°
1008.4 hPa 29.8 mm 12.8°
4
1%
 05:46     21:26    Daglengte: 15:40 Zaterdag 31 Jul
01:00
11°
1009.2 hPa 29.9 mm 10.5°
3
1%
04:00
11°
1009.2 hPa 29.9 mm 10.2°
3
0%
07:00
12°
1010.0 hPa 29.9 mm 11.1°
4
1%
10:00
14°
1010.3 hPa 29.9 mm 10.8°
5
1%
13:00
17°
1010.8 hPa 30.0 mm 9.1°
7
1%
16:00
17°
1010.9 hPa 30.0 mm 10.0°
6
1%
19:00
16°
1011.5 hPa 30.0 mm 9.7°
6
1%
22:00
11°
1012.9 hPa 30.0 mm 8.4°
4
0%
 05:48     21:25    Daglengte: 15:37 Zondag 01 Aug
01:00
13°
1013.2 hPa 30.0 mm 6.0°
5
1%
04:00
13°
1013.3 hPa 30.0 mm 5.3°
5
1%
07:00
13°
1013.8 hPa 30.0 mm 5.1°
5
1%
10:00
13°
1014.7 hPa 30.0 mm 6.0°
5
1%
13:00
15°
1015.2 hPa 30.0 mm 7.3°
4
1%
16:00
18°
1014.6 hPa 30.0 mm 8.0°
3
1%
19:00
17°
1015.2 hPa 30.0 mm 9.5°
5
0%
22:00
10°
1016.5 hPa 30.0 mm 8.0°
3
0%
 05:49     21:23    Daglengte: 15:34 Maandag 02 Aug
01:00
Voelt als: 7.2°
1016.9 hPa 30.0 mm 7.4°
2
0%
04:00
Voelt als: 7.4°
1016.9 hPa 30.0 mm 6.7°
1
0%
07:00
Voelt als: 8.6°
1016.9 hPa 30.0 mm 8.4°
2
1%
10:00
15°
1016.7 hPa 30.0 mm 10.6°
2
1%
13:00
19°
1015.6 hPa 60.1 mm 11.4°
3
1%
19:00
18°
1013.2 hPa 60.3 mm 13.4°
2
1%
 05:51     21:21    Daglengte: 15:30 Dinsdag 03 Aug
01:00
14°
1010.9 hPa 61.1 mm 13.3°
3
1%
07:00
14°
1008.2 hPa 62.4 mm 13.6°
5
1%
13:00
16°
1006.7 hPa 63.7 mm 14.3°
5
1%
19:00
16°
1004.8 hPa 68.1 mm 12.7°
6
1%
 05:53     21:19    Daglengte: 15:26 Woensdag 04 Aug
01:00
11°
1005.4 hPa 70.6 mm 10.5°
4
1%
07:00
10°
1006.2 hPa 72.0 mm 9.4°
4
0%
13:00
18°
1005.8 hPa 72.5 mm 11.8°
6
0%
19:00
17°
1005.6 hPa 75.2 mm 12.4°
6
1%
 05:54     21:17    Daglengte: 15:23 Donderdag 05 Aug
01:00
12°
1005.9 hPa 75.9 mm 11.3°
3
1%
07:00
11°
1004.1 hPa 75.9 mm 10.8°
3
1%
13:00
17°
1011.5 hPa 0.9 mm 12.9°
2
65%
19:00
16°
1011.2 hPa 2.0 mm 13.1°
3
70%
 05:56     21:15    Daglengte: 15:19 Vrijdag 06 Aug
01:00
11°
1012.6 hPa 0.4 mm 10.0°
2
55%
07:00
11°
1012.9 hPa 0.2 mm 10.1°
3
57%
13:00
17°
1013.8 hPa 0.5 mm 12.4°
4
73%
19:00
16°
1013.2 hPa 1.4 mm 12.7°
3
77%
 05:58     21:13    Daglengte: 15:15 Zaterdag 07 Aug
01:00
12°
1013.8 hPa 0.5 mm 10.4°
2
64%
07:00
11°
1013.0 hPa 0.5 mm 10.3°
2
66%
13:00
17°
1013.1 hPa 0.2 mm 12.5°
3
76%
19:00
16°
1012.6 hPa 1.5 mm 12.8°
3
71%
 06:00     21:11    Daglengte: 15:11 Zondag 08 Aug
01:00
12°
1013.0 hPa 0.6 mm 10.4°
2
64%
07:00
11°
1012.1 hPa 0.6 mm 10.5°
2
62%
13:00
17°
1012.9 hPa 0.7 mm 12.3°
4
64%
19:00
17°
1013.0 hPa 0.9 mm 13.1°
3
61%
 06:01     21:09    Daglengte: 15:08 Maandag 09 Aug
01:00
12°
1013.8 hPa 0.3 mm 10.2°
3
62%
07:00
12°
1013.2 hPa 0.2 mm 10.5°
2
61%
13:00
17°
1014.4 hPa 0.6 mm 12.6°
3
75%
19:00
17°
1014.4 hPa 1.5 mm 13.2°
3
69%
 06:03     21:07    Daglengte: 15:04 Dinsdag 10 Aug
01:00
12°
1015.6 hPa 0.3 mm 10.6°
2
61%
07:00
11°
1015.0 hPa 0.5 mm 10.5°
2
66%
13:00
17°
1015.2 hPa 1.3 mm 12.7°
3
67%
  CAPE Lifted Index Hail Supercell Tornado SRH 3km CL BTM PRES CL TOP PRES Swiss DWD icon SMHI TS
 05:38     21:35    Daglengte: 15:57 Vandaag
14:00 445 J/kg -2.0 K 0 % 0 % 0 % 0 m²/s² 0 0 -1.07 3
15:00 644 J/kg -2.9 K 0 % 0 % 0 % 0 m²/s² 0 0 -2.48 3
16:00 758 J/kg -3.2 K 0 % 0 % 0 % 0 m²/s² 0 0 -2.6 3
17:00 906 J/kg -3.6 K 0 % 0 % 0 % 0 m²/s² 0 0 -2.85 3
18:00 913 J/kg -3.2 K 0 % 0 % 0 % 0 m²/s² 0 0 -2.42 3
19:00 648 J/kg -3.1 K 0 % 0 % 0 % 0 m²/s² 0 0 -2.41 3
20:00 477 J/kg -2.6 K 0 % 0 % 0 % 0 m²/s² 0 0 -2.21 80
21:00 189 J/kg -1.3 K 0 % 0 % 0 % 0 m²/s² 0 0 -0.55 61
22:00 51 J/kg -1.1 K 0 % 0 % 0 % 0 m²/s² 0 0 -0.44 3
23:00 61 J/kg -0.2 K 0 % 0 % 0 % 0 m²/s² 0 0 0.46 3
 05:40     21:33    Daglengte: 15:53 Morgen
00:00 167 J/kg -0.4 K 0 % 0 % 0 % 0 m²/s² 0 0 -0.1 3
01:00 93 J/kg 0.2 K 0 % 0 % 0 % 0 m²/s² 0 0 0.68 3
02:00 47 J/kg 0.6 K 0 % 0 % 0 % 0 m²/s² 0 0 0.99 3
03:00 13 J/kg 1.4 K 0 % 0 % 0 % 0 m²/s² 0 0 1.7 51
04:00 2 J/kg 1.8 K 0 % 0 % 0 % 0 m²/s² 0 0 2.01 3
05:00 1 J/kg 1.5 K 0 % 0 % 0 % 0 m²/s² 0 0 1.68 3
06:00 0 J/kg 1.5 K 0 % 0 % 0 % 0 m²/s² 0 0 1.74 3
07:00 0 J/kg 1.6 K 0 % 0 % 0 % 0 m²/s² 0 0 1.63 3
08:00 4 J/kg 1.8 K 0 % 0 % 0 % 0 m²/s² 0 0 1.92 3
09:00 15 J/kg 1.9 K 0 % 0 % 0 % 0 m²/s² 0 0 1.99 3
10:00 17 J/kg 2.0 K 0 % 0 % 0 % 0 m²/s² 0 0 2.12 3
11:00 19 J/kg 2.0 K 0 % 0 % 0 % 0 m²/s² 0 0 2.12 3
12:00 38 J/kg 1.7 K 0 % 0 % 0 % 0 m²/s² 0 0 1.88 3
13:00 42 J/kg 1.3 K 0 % 0 % 0 % 0 m²/s² 0 0 1.39 3
14:00 31 J/kg 1.7 K 0 % 0 % 0 % 0 m²/s² 0 0 1.79 80
15:00 19 J/kg 2.2 K 0 % 0 % 0 % 0 m²/s² 0 0 2.38 80
16:00 20 J/kg 2.5 K 0 % 0 % 0 % 0 m²/s² 0 0 2.89 3
17:00 11 J/kg 2.0 K 0 % 0 % 0 % 0 m²/s² 0 0 2.81 3
18:00 7 J/kg 1.5 K 0 % 0 % 0 % 0 m²/s² 0 0 2.52 80
19:00 33 J/kg 1.4 K 0 % 0 % 0 % 0 m²/s² 0 0 2.3 2
20:00 63 J/kg 1.3 K 0 % 0 % 0 % 0 m²/s² 0 0 2.47 2
21:00 119 J/kg 1.1 K 0 % 0 % 0 % 0 m²/s² 0 0 3.23 80
22:00 159 J/kg 0.7 K 0 % 0 % 0 % 0 m²/s² 0 0 2.89 2
23:00 177 J/kg 0.7 K 0 % 0 % 0 % 0 m²/s² 0 0 2.38 2
 05:41     21:32    Daglengte: 15:51 Woensdag 28 Jul
00:00 166 J/kg 0.7 K 0 % 0 % 0 % 0 m²/s² 0 0 3.79 2
01:00 55 J/kg 1.5 K 0 % 0 % 0 % 0 m²/s² 0 0 4.02 2
02:00 0 J/kg 1.7 K 0 % 0 % 0 % 0 m²/s² 0 0 4.37 2
03:00 33 J/kg 0.6 K 0 % 0 % 0 % 0 m²/s² 0 0 3.03 3
04:00 26 J/kg 0.0 K 0 % 0 % 0 % 0 m²/s² 0 0 1.38 2
05:00 28 J/kg -0.6 K 0 % 0 % 0 % 0 m²/s² 0 0 1.02 2
06:00 11 J/kg 0.7 K 0 % 0 % 0 % 0 m²/s² 0 0 1.12 2
07:00 0 J/kg 0.8 K 0 % 0 % 0 % 0 m²/s² 0 0 1.94 3
08:00 348 J/kg -1.3 K 0 % 0 % 0 % 0 m²/s² 0 0 1.19 2
09:00 577 J/kg -2.3 K 0 % 0 % 0 % 0 m²/s² 0 0 0.31 2
10:00 585 J/kg -2.6 K 0 % 0 % 0 % 0 m²/s² 0 0 -0.05 2
11:00 301 J/kg -1.1 K 0 % 0 % 0 % 0 m²/s² 0 0 2.59 2
12:00 231 J/kg -1.0 K 0 % 0 % 0 % 0 m²/s² 0 0 2.78 2
13:00 272 J/kg -1.3 K 0 % 0 % 0 % 0 m²/s² 0 0 1.61 2
14:00 215 J/kg -1.1 K 0 % 0 % 0 % 0 m²/s² 0 0 2.08 2
15:00 349 J/kg -1.7 K 0 % 0 % 0 % 0 m²/s² 0 0 1.24 3
16:00 169 J/kg -1.1 K 0 % 0 % 0 % 0 m²/s² 0 0 2.11 3
17:00 470 J/kg -2.3 K 0 % 0 % 0 % 0 m²/s² 0 0 0.82 2
18:00 465 J/kg -2.1 K 0 % 0 % 0 % 0 m²/s² 0 0 0.69 2
19:00 313 J/kg -1.3 K 0 % 0 % 0 % 0 m²/s² 0 0 -0.31 2
20:00 179 J/kg -0.5 K 0 % 0 % 0 % 0 m²/s² 0 0 -0.05 2
21:00 138 J/kg -0.2 K 0 % 0 % 0 % 0 m²/s² 0 0 0.13 1
22:00 223 J/kg -0.8 K 0 % 0 % 0 % 0 m²/s² 0 0 0.28 1
23:00 54 J/kg 0.5 K 0 % 0 % 0 % 0 m²/s² 0 0 2 0
 05:43     21:30    Daglengte: 15:47 Donderdag 29 Jul
00:00 42 J/kg 0.7 K 0 % 0 % 0 % 0 m²/s² 0 0 2.68 1
01:00 17 J/kg 1.2 K 0 % 0 % 0 % 0 m²/s² 0 0 3.45 1
02:00 12 J/kg 1.2 K 0 % 0 % 0 % 0 m²/s² 0 0 3.45 1
03:00 17 J/kg 2.0 K 0 % 0 % 0 % 0 m²/s² 0 0 4.13 2
04:00 0 J/kg 2.5 K 0 % 0 % 0 % 0 m²/s² 0 0 5.05 2
05:00 1 J/kg 3.6 K 0 % 0 % 0 % 0 m²/s² 0 0 6.24 2
06:00 0 J/kg 4.3 K 0 % 0 % 0 % 0 m²/s² 0 0 5.56 2
07:00 0 J/kg 4.0 K 0 % 0 % 0 % 0 m²/s² 0 0 4.72 2
08:00 0 J/kg 3.9 K 0 % 0 % 0 % 0 m²/s² 0 0 4.68 1
09:00 21 J/kg 3.4 K 0 % 0 % 0 % 0 m²/s² 0 0 4.24 2
10:00 47 J/kg 2.9 K 0 % 0 % 0 % 0 m²/s² 0 0 3.68 2
11:00 52 J/kg 2.3 K 0 % 0 % 0 % 0 m²/s² 0 0 3.14 2
12:00 29 J/kg 3.2 K 0 % 0 % 0 % 0 m²/s² 0 0 4.52 2
13:00 48 J/kg 2.4 K 0 % 0 % 0 % 0 m²/s² 0 0 3.96 1
Temp Baro Wind Neerslag
  EWN Forecast EWN WRFDA DWD ICON FMI HIRLAM MET Norway GFS
 05:38     21:35    Daglengte: 15:57 Vandaag
16:00 21.2° 1008.8 hPa 3.9 m/s 0.0 mm 20.4° 1008.4 hPa 1.9 m/s 0.1 mm 21.2° 1009.3 hPa 3.1 m/s -2.0 mm 21.1° 1008.6 hPa 4.1 m/s 0.0 mm 19.2° 1009.2 hPa 2.5 m/s
19:00 18.9° 1008.5 hPa 4.4 m/s 0.0 mm 19.1° 1007.3 hPa 4.3 m/s 0.5 mm 18.6° 1008.6 hPa 4.4 m/s 0.1 mm 19.2° 1008.4 hPa 4.1 m/s 0.0 mm 19.3° 1008.0 hPa 1.7 m/s
22:00 16.8° 1008.9 hPa 4.0 m/s 0.4 mm 15.6° 1007.8 hPa 3.9 m/s 2.0 mm 16.4° 1009.1 hPa 3.8 m/s 0.6 mm 17.6° 1009.0 hPa 3.9 m/s 0.0 mm 14.8° 1008.4 hPa 2.7 m/s
 05:40     21:33    Daglengte: 15:53 Morgen
01:00 16.1° 1008.9 hPa 3.5 m/s 0.0 mm 14.6° 1007.3 hPa 2.8 m/s 3.5 mm 15.4° 1009.3 hPa 3.6 m/s 0.0 mm 16.7° 1009.0 hPa 3.8 m/s 0.0 mm 14.3° 1008.3 hPa 2.8 m/s
04:00 15.2° 1008.3 hPa 3.5 m/s 0.0 mm 14.0° 1007.5 hPa 2.9 m/s 4.1 mm 14.6° 1008.4 hPa 3.6 m/s 0.1 mm 15.3° 1008.4 hPa 5.7 m/s 0.0 mm 14.0° 1007.3 hPa 2.4 m/s
07:00 14.3° 1008.4 hPa 3.6 m/s 0.0 mm 13.0° 1008.2 hPa 2.3 m/s 4.2 mm 14.0° 1008.4 hPa 3.7 m/s 0.0 mm 14.3° 1008.5 hPa 5.1 m/s 0.0 mm 14.0° 1007.5 hPa 2.0 m/s
10:00 15.3° 1008.5 hPa 4.2 m/s 0.0 mm 13.9° 1008.2 hPa 3.1 m/s 5.1 mm 16.7° 1007.5 hPa 4.2 m/s 0.0 mm 14.6° 1009.1 hPa 6.2 m/s 0.0 mm 14.7° 1007.7 hPa 2.3 m/s
13:00 16.3° 1008.1 hPa 4.0 m/s 0.0 mm 14.2° 1008.5 hPa 4.7 m/s 11.1 mm 17.9° 1006.7 hPa 3.5 m/s 0.1 mm 14.9° 1009.5 hPa 6.9 m/s 0.0 mm 15.2° 1007.8 hPa 2.4 m/s
16:00 15.7° 1007.9 hPa 6.0 m/s 6.8 mm 15.0° 1008.1 hPa 4.6 m/s 23.0 mm 16.9° 1006.5 hPa 6.2 m/s 3.4 mm 15.2° 1009.6 hPa 5.9 m/s 0.0 mm 13.4° 1008.0 hPa 4.0 m/s
19:00 15.5° 1007.8 hPa 5.2 m/s 0.0 mm 16.4° 1007.0 hPa 2.8 m/s 24.7 mm 16.0° 1006.8 hPa 5.5 m/s 0.6 mm 15.4° 1010.0 hPa 4.9 m/s 0.0 mm 14.3° 1007.5 hPa 3.2 m/s
22:00 14.5° 1008.4 hPa 4.0 m/s 0.0 mm 14.0° 1007.0 hPa 2.8 m/s 25.2 mm 14.5° 1007.4 hPa 2.9 m/s 0.7 mm 15.5° 1011.1 hPa 4.0 m/s 0.0 mm 11.7° 1007.8 hPa 1.7 m/s
 05:41     21:32    Daglengte: 15:51 Woensdag 28 Jul
01:00 13.7° 1007.6 hPa 3.3 m/s 0.0 mm 11.7° 1005.6 hPa 2.7 m/s 29.1 mm 13.2° 1006.6 hPa 3.1 m/s 0.0 mm 15.2° 1011.0 hPa 4.2 m/s 0.0 mm 10.4° 1006.6 hPa 2.5 m/s
04:00 12.9° 1006.2 hPa 3.0 m/s 0.0 mm 9.6° 1003.6 hPa 2.7 m/s 29.3 mm 12.8° 1005.8 hPa 4.1 m/s 0.0 mm 14.3° 1010.3 hPa 2.3 m/s 0.0 mm 9.3° 1004.8 hPa 2.6 m/s
07:00 12.6° 1005.6 hPa 3.3 m/s 0.0 mm 11.4° 1002.1 hPa 3.1 m/s 30.6 mm 12.6° 1005.4 hPa 3.6 m/s 0.0 mm 13.8° 1010.0 hPa 2.8 m/s 0.0 mm 10.9° 1003.0 hPa 3.4 m/s
10:00 13.8° 1003.7 hPa 5.0 m/s 4.7 mm 13.2° 1001.4 hPa 5.2 m/s 31.8 mm 14.4° 1005.6 hPa 6.1 m/s 0.0 mm 12.8° 1002.7 hPa 5.2 m/s
13:00 14.8° 1003.4 hPa 6.5 m/s 13.6 mm 14.4° 1001.4 hPa 6.4 m/s 32.8 mm 16.3° 1005.0 hPa 7.6 m/s 0.1 mm 13.7° 1002.8 hPa 6.2 m/s
16:00 14.9° 1003.5 hPa 5.7 m/s 4.2 mm 13.4° 1000.7 hPa 5.4 m/s 33.6 mm 16.9° 1005.4 hPa 7.2 m/s 0.2 mm 11.7° 1002.8 hPa 4.4 m/s
19:00 14.7° 1004.0 hPa 7.0 m/s 8.5 mm 14.2° 1001.2 hPa 7.2 m/s 35.0 mm 16.6° 1005.3 hPa 7.8 m/s 0.0 mm 13.3° 1003.5 hPa 4.4 m/s
22:00 13.2° 1005.2 hPa 5.9 m/s 0.0 mm 12.4° 1003.0 hPa 4.7 m/s 37.0 mm 13.8° 1006.4 hPa 5.5 m/s 0.0 mm 11.6° 1005.2 hPa 5.6 m/s
 05:43     21:30    Daglengte: 15:47 Donderdag 29 Jul
01:00 11.8° 1005.9 hPa 6.4 m/s 0.0 mm 11.5° 1004.2 hPa 6.0 m/s 38.4 mm 11.5° 1006.8 hPa 5.5 m/s 0.0 mm 12.1° 1005.7 hPa 6.6 m/s
04:00 11.7° 1006.1 hPa 6.6 m/s 0.0 mm 11.6° 1005.1 hPa 6.3 m/s 38.7 mm 10.8° 1006.5 hPa 5.1 m/s 0.0 mm 12.5° 1005.8 hPa 7.9 m/s
07:00 12.0° 1006.7 hPa 6.4 m/s 9.3 mm 12.0° 1006.3 hPa 6.6 m/s 39.5 mm 10.9° 1006.7 hPa 5.3 m/s 0.0 mm 12.3° 1006.5 hPa 7.4 m/s
10:00 14.9° 1007.0 hPa 7.3 m/s 0.0 mm 14.3° 1008.1 hPa 7.7 m/s 40.4 mm 15.0° 1006.7 hPa 7.2 m/s 0.0 mm 11.8° 1007.9 hPa 6.6 m/s
13:00 17.7° 1007.1 hPa 6.9 m/s 0.0 mm 16.1° 1009.6 hPa 6.5 m/s 40.9 mm 18.1° 1006.5 hPa 7.0 m/s 0.0 mm 12.0° 1008.9 hPa 5.6 m/s
16:00 12.3° 1009.4 hPa 4.1 m/s 24.5 mm 12.3° 1009.4 hPa 4.1 m/s 24.5 mm
19:00 12.9° 1009.3 hPa 1.9 m/s 24.9 mm 12.9° 1009.3 hPa 1.9 m/s 24.9 mm
22:00 10.9° 1009.4 hPa 1.2 m/s 24.9 mm 10.9° 1009.4 hPa 1.2 m/s 24.9 mm
 05:45     21:28    Daglengte: 15:43 Vrijdag 30 Jul
01:00 9.5° 1009.4 hPa 1.3 m/s 24.9 mm 9.5° 1009.4 hPa 1.3 m/s 24.9 mm
04:00 9.1° 1008.4 hPa 1.0 m/s 24.9 mm 9.1° 1008.4 hPa 1.0 m/s 24.9 mm
07:00 10.1° 1008.0 hPa 1.6 m/s 24.9 mm 10.1° 1008.0 hPa 1.6 m/s 24.9 mm
10:00 13.9° 1007.7 hPa 2.5 m/s 24.9 mm 13.9° 1007.7 hPa 2.5 m/s 24.9 mm
13:00 15.4° 1006.9 hPa 2.4 m/s 25.4 mm 15.4° 1006.9 hPa 2.4 m/s 25.4 mm
16:00 17.1° 1006.8 hPa 3.0 m/s 26.9 mm 17.1° 1006.8 hPa 3.0 m/s 26.9 mm
19:00 15.3° 1006.9 hPa 2.9 m/s 29.3 mm 15.3° 1006.9 hPa 2.9 m/s 29.3 mm
22:00 13.8° 1008.4 hPa 3.6 m/s 29.8 mm 13.8° 1008.4 hPa 3.6 m/s 29.8 mm
 05:46     21:26    Daglengte: 15:40 Zaterdag 31 Jul
01:00 11.0° 1009.2 hPa 2.7 m/s 29.9 mm 11.0° 1009.2 hPa 2.7 m/s 29.9 mm
04:00 10.5° 1009.2 hPa 2.9 m/s 29.9 mm 10.5° 1009.2 hPa 2.9 m/s 29.9 mm
07:00 11.8° 1010.0 hPa 4.1 m/s 29.9 mm 11.8° 1010.0 hPa 4.1 m/s 29.9 mm
10:00 14.2° 1010.3 hPa 5.1 m/s 29.9 mm 14.2° 1010.3 hPa 5.1 m/s 29.9 mm
13:00 17.1° 1010.8 hPa 6.8 m/s 30.0 mm 17.1° 1010.8 hPa 6.8 m/s 30.0 mm
16:00 17.3° 1010.9 hPa 6.0 m/s 30.0 mm 17.3° 1010.9 hPa 6.0 m/s 30.0 mm
19:00 16.2° 1011.5 hPa 5.8 m/s 30.0 mm 16.2° 1011.5 hPa 5.8 m/s 30.0 mm
22:00 11.3° 1012.9 hPa 4.2 m/s 30.0 mm 11.3° 1012.9 hPa 4.2 m/s 30.0 mm
 05:48     21:25    Daglengte: 15:37 Zondag 01 Aug
01:00 13.1° 1013.2 hPa 5.4 m/s 30.0 mm 13.1° 1013.2 hPa 5.4 m/s 30.0 mm
04:00 12.8° 1013.3 hPa 5.3 m/s 30.0 mm 12.8° 1013.3 hPa 5.3 m/s 30.0 mm
07:00 12.6° 1013.8 hPa 5.3 m/s 30.0 mm 12.6° 1013.8 hPa 5.3 m/s 30.0 mm
10:00 13.1° 1014.7 hPa 4.8 m/s 30.0 mm 13.1° 1014.7 hPa 4.8 m/s 30.0 mm
13:00 14.9° 1015.2 hPa 4.1 m/s 30.0 mm 14.9° 1015.2 hPa 4.1 m/s 30.0 mm
16:00 18.3° 1014.6 hPa 3.3 m/s 30.0 mm 18.3° 1014.6 hPa 3.3 m/s 30.0 mm
19:00 16.7° 1015.2 hPa 5.0 m/s 30.0 mm 16.7° 1015.2 hPa 5.0 m/s 30.0 mm
22:00 10.3° 1016.5 hPa 3.0 m/s 30.0 mm 10.3° 1016.5 hPa 3.0 m/s 30.0 mm
 05:49     21:23    Daglengte: 15:34 Maandag 02 Aug
01:00 8.3° 1016.9 hPa 2.0 m/s 30.0 mm 8.3° 1016.9 hPa 2.0 m/s 30.0 mm
04:00 7.8° 1016.9 hPa 1.3 m/s 30.0 mm 7.8° 1016.9 hPa 1.3 m/s 30.0 mm
07:00 9.3° 1016.9 hPa 1.8 m/s 30.0 mm 9.3° 1016.9 hPa 1.8 m/s 30.0 mm
10:00 15.1° 1016.7 hPa 2.4 m/s 30.0 mm 15.1° 1016.7 hPa 2.4 m/s 30.0 mm
13:00 19.0° 1015.6 hPa 2.8 m/s 30.0 mm 19.0° 1015.6 hPa 2.8 m/s 30.0 mm
19:00 17.9° 1013.2 hPa 2.4 m/s 30.2 mm 17.9° 1013.2 hPa 2.4 m/s 30.2 mm
 05:51     21:21    Daglengte: 15:30 Dinsdag 03 Aug
01:00 14.2° 1010.9 hPa 2.7 m/s 30.6 mm 14.2° 1010.9 hPa 2.7 m/s 30.6 mm
07:00 14.1° 1008.2 hPa 4.5 m/s 31.2 mm 14.1° 1008.2 hPa 4.5 m/s 31.2 mm
13:00 16.5° 1006.7 hPa 5.5 m/s 32.4 mm 16.5° 1006.7 hPa 5.5 m/s 32.4 mm
19:00 15.9° 1004.8 hPa 6.1 m/s 34.5 mm 15.9° 1004.8 hPa 6.1 m/s 34.5 mm
 05:53     21:19    Daglengte: 15:26 Woensdag 04 Aug
01:00 11.1° 1005.4 hPa 4.4 m/s 35.8 mm 11.1° 1005.4 hPa 4.4 m/s 35.8 mm
07:00 10.1° 1006.2 hPa 4.2 m/s 36.0 mm 10.1° 1006.2 hPa 4.2 m/s 36.0 mm
13:00 17.9° 1005.8 hPa 6.2 m/s 36.5 mm 17.9° 1005.8 hPa 6.2 m/s 36.5 mm
19:00 16.6° 1005.6 hPa 5.6 m/s 37.9 mm 16.6° 1005.6 hPa 5.6 m/s 37.9 mm
 05:54     21:17    Daglengte: 15:23 Donderdag 05 Aug
01:00 11.6° 1005.9 hPa 3.4 m/s 37.9 mm 11.6° 1005.9 hPa 3.4 m/s 37.9 mm
07:00 11.1° 1004.1 hPa 2.5 m/s 37.9 mm 11.1° 1004.1 hPa 2.5 m/s 37.9 mm
13:00 17.1° 1011.5 hPa 2.4 m/s 0.9 mm
19:00 16.4° 1011.2 hPa 2.9 m/s 2.0 mm
 05:56     21:15    Daglengte: 15:19 Vrijdag 06 Aug
01:00 11.3° 1012.6 hPa 2.3 m/s 0.4 mm
07:00 11.1° 1012.9 hPa 2.7 m/s 0.2 mm
13:00 17.0° 1013.8 hPa 3.5 m/s 0.5 mm
19:00 16.2° 1013.2 hPa 2.7 m/s 1.4 mm
 05:58     21:13    Daglengte: 15:15 Zaterdag 07 Aug
01:00 11.5° 1013.8 hPa 2.1 m/s 0.5 mm
07:00 11.2° 1013.0 hPa 2.2 m/s 0.5 mm
13:00 16.9° 1013.1 hPa 2.8 m/s 0.2 mm
19:00 16.3° 1012.6 hPa 2.6 m/s 1.5 mm
 06:00     21:11    Daglengte: 15:11 Zondag 08 Aug
01:00 11.5° 1013.0 hPa 2.1 m/s 0.6 mm
07:00 11.3° 1012.1 hPa 2.2 m/s 0.6 mm
13:00 17.1° 1012.9 hPa 3.5 m/s 0.7 mm
19:00 17.0° 1013.0 hPa 3.4 m/s 0.9 mm
 06:01     21:09    Daglengte: 15:08 Maandag 09 Aug
01:00 11.5° 1013.8 hPa 2.5 m/s 0.3 mm
07:00 11.8° 1013.2 hPa 2.3 m/s 0.2 mm
13:00 17.4° 1014.4 hPa 3.2 m/s 0.6 mm
19:00 17.0° 1014.4 hPa 2.9 m/s 1.5 mm
 06:03     21:07    Daglengte: 15:04 Dinsdag 10 Aug
01:00 11.7° 1015.6 hPa 2.2 m/s 0.3 mm
07:00 11.5° 1015.0 hPa 1.8 m/s 0.5 mm
13:00 17.3° 1015.2 hPa 2.5 m/s 1.3 mm
FMI Hirlam - 7.5 km EWN WRFDA - 12 km DWD ICON - 7 km GFS - 25 km Basiskaart